Lid_Strength_Index
2 2 3 3 3 3 3 3 4 6 5 3 2 -0 -1 -1 -0 -1 -0 0 1 1 2 2 1 1 1 1 0 -0 -1 -1 -0 0 1 1 1 1
3 3 3 3 3 4 4 3 3 4 5 2 1 -0 -1 -1 -1 -2 -2 -1 -2 0 1 0 -0 0 0 1 1 1 0 -0 1 1 1 1 1 2
3 3 3 3 4 4 3 3 3 2 3 2 1 -1 -1 -1 -1 -2 -2 -1 -1 -1 1 0 -0 0 0 -0 -0 0 1 0 1 1 1 1 1 1
4 4 4 4 3 2 3 2 2 1 1 2 0 0 -0 -1 -1 -1 -1 -1 -1 -2 -1 -0 -0 -0 -0 -0 -0 -0 -0 0 1 1 1 1 1 1
3 3 3 3 3 3 2 1 1 1 1 1 2 0 0 -0 -0 -1 -1 -1 0 -1 -1 -1 -1 -0 0 0 0 0 1 2 2 2 2 1 1 1
3 2 3 2 2 2 1 1 0 0 1 2 2 2 1 -0 0 1 1 0 1 1 -0 -0 -1 -1 -0 1 1 1 1 2 2 2 2 2 2 2
2 2 2 2 2 1 1 0 -0 1 1 2 2 2 2 1 2 1 2 1 1 0 0 0 0 0 -2 0 1 3 3 3 2 3 3 3 3 4
3 2 2 1 1 1 0 0 -0 0 1 1 2 2 1 1 1 2 2 2 3 1 1 2 1 1 -1 -1 2 2 2 3 3 4 4 4 5 5
2 2 2 2 1 2 1 0 -0 -0 -0 -0 1 1 1 1 0 1 2 2 3 2 2 3 1 1 0 1 2 3 3 3 3 4 5 5 6 6
2 2 2 2 2 3 2 0 -0 -1 -1 -0 -1 -0 -1 -1 -0 0 1 1 1 2 2 4 2 2 1 0 3 4 4 4 5 5 6 6 6 6
2 1 2 2 4 4 2 1 0 0 -0 0 1 2 2 2 2 1 3 4 4 4 3 4 2 3 2 3 2 3 4 5 6 5 5 5 6 6
2 1 4 3 5 5 2 1 2 2 2 2 1 1 2 1 2 2 2 5 5 6 2 5 4 3 6 2 2 2 2 5 5 5 6 6 7 6
3 2 1 5 5 5 5 2 3 4 3 2 3 2 2 3 3 2 2 3 5 6 3 4 4 4 5 5 3 3 3 4 4 5 7 7 6 6
2 2 1 5 5 5 4 6 6 5 2 3 4 4 4 4 3 3 3 3 1 3 2 3 5 4 6 7 7 5 5 6 5 6 5 6 7 7
1 2 4 4 5 4 4 5 5 3 4 5 5 5 5 5 4 4 3 3 3 3 2 2 3 4 5 7 7 7 8 7 4 7 7 7 6 7
1 1 1 3 4 3 2 2 3 3 4 6 6 6 6 5 5 5 5 4 4 4 3 3 3 3 5 5 6 7 8 8 7 7 7 7 7 6
4 1 1 1 2 3 2 2 3 3 6 6 7 7 7 6 6 5 5 6 6 6 5 5 3 3 3 5 8 8 8 8 7 7 7 8 7 6
2 1 2 2 3 4 4 4 4 6 6 7 7 7 7 7 6 6 6 6 6 6 6 5 6 6 6 6 6 8 7 8 8 7 7 9 9 7
2 1 1 2 3 4 4 4 4 6 6 7 8 7 7 7 7 7 7 6 6 6 6 6 6 8 10 10 7 7 8 8 8 8 7 8 9 7
1 2 2 2 3 4 4 5 5 6 7 7 7 7 7 7 7 6 6 7 6 6 7 6 7 8 9 10 10 7 8 7 8 8 7 7 7 8
2 2 2 2 3 4 4 4 6 6 7 7 7 7 6 6 6 6 6 8 7 7 7 7 7 10 6 6 9 8 6 7 7 8 8 8 8 8
1 2 2 3 3 3 4 5 6 7 7 7 7 6 5 5 6 6 6 7 7 6 7 6 5 5 6 8 8 7 6 6 7 7 7 8 9 10
1 1 2 3 3 4 4 5 7 7 7 7 7 7 6 5 5 5 6 6 6 6 6 6 6 6 8 8 8 7 8 7 7 9 8 8 8 8